Weather History for Shannon, Ireland

Change the Weather History Date:

Thursday, October 14, 2010

  Actual Average Record
Temperature  
Mean Temperature 48 °F -  
Max Temperature 52 °F 55 °F 64 °F (2007)
Min Temperature 45 °F 43 °F 35 °F (2012)
Degree Days  
Heating Degree Days 16    
Moisture  
Dew Point 45 °F    
Average Humidity 85    
Maximum Humidity 100    
Minimum Humidity 65    
Precipitation  
Precipitation 0.00 in 0.12 in - ()
Sea Level Pressure  
Sea Level Pressure 30.26 in    
Wind  
Wind Speed 4 mph ()    
Max Wind Speed 9 mph    
Max Gust Speed -    
Visibility 5.7 miles    
Events      
Averages and records for this station are not official NWS values.
T = Trace of Precipitation, MM = Missing Value Source: Averaged Metar Reports

Daily Weather History Graph

Daily Weather History Graph

Search for Another Location

Airport:

Trip Planner

Search our weather history database for the weather conditions in past years. The results will help you decide how hot, cold, wet, or windy it might be!

Date:

Astronomy

Oct. 14, 2010 Rise Set
Actual Time 7:59 AM IST 6:43 PM IST
Civil Twilight 7:24 AM IST 7:17 PM IST
Nautical Twilight 6:45 AM IST 7:57 PM IST
Astronomical Twilight 6:05 AM IST 8:37 PM IST
Moon 3:24 PM IST (10/14) 11:40 PM IST (10/14)
Length of Visible Light 11h 52m
Length of Day
10h 43m
Waxing Crescent, 46% of the Moon is Illuminated
Oct 14
Waxing Crescent
Oct 14
First Quarter
Oct 23
Full
Oct 30
Last Quarter
Nov 6
New

Hourly Weather History & Observations

Time (IST) Temp. Windchill Dew Point Humidity Pressure Visibility Wind Dir Wind Speed Gust Speed Precip Events Conditions
12:00 AM 46.4 °F 42.4 °F 44.6 °F 93% 30.24 in 3.1 mi NNE 8.1 mph - N/A   Overcast
12:30 AM 46.4 °F 42.9 °F 42.8 °F 87% 30.24 in 3.7 mi North 6.9 mph - N/A   Mostly Cloudy
1:00 AM 46 °F - 44 °F 89% 30.27 in 4 mi North 4.5 mph - -   Mist
1:00 AM 46.4 °F 44.3 °F 44.6 °F 93% 30.24 in 4.3 mi North 4.6 mph - N/A   Overcast
1:30 AM 46.4 °F 45.2 °F 42.8 °F 87% 30.24 in 3.7 mi NNW 3.5 mph - N/A   Mostly Cloudy
2:00 AM 46.4 °F - 42.8 °F 87% 30.24 in 3.7 mi Variable 1.2 mph - N/A   Overcast
2:30 AM 46.4 °F - 42.8 °F 87% 30.24 in 3.7 mi NNW 2.3 mph - N/A   Mostly Cloudy
3:00 AM 46.4 °F 45.2 °F 44.6 °F 93% 30.24 in 5.0 mi West 3.5 mph - N/A   Mostly Cloudy
3:30 AM 46.4 °F - 44.6 °F 93% 30.24 in 5.0 mi NW 2.3 mph - N/A   Mostly Cloudy
4:00 AM 46.4 °F - 44.6 °F 93% 30.24 in 5.0 mi NW 1.2 mph - N/A   Mostly Cloudy
4:30 AM 46.4 °F - 44.6 °F 93% 30.24 in 5.0 mi NNW 2.3 mph - N/A   Mostly Cloudy
5:00 AM 46.4 °F - 44.6 °F 93% 30.24 in 5.0 mi NNW 2.3 mph - N/A   Mostly Cloudy
5:30 AM 46.4 °F - 44.6 °F 93% 30.24 in 5.0 mi North 1.2 mph - N/A   Mostly Cloudy
6:00 AM 46.4 °F - 44.6 °F 93% 30.24 in 5.0 mi Calm Calm - N/A   Mostly Cloudy
6:30 AM 46.4 °F - 44.6 °F 93% 30.24 in 5.0 mi NW 1.2 mph - N/A   Mostly Cloudy
7:00 AM 47 °F - 45 °F 89% 30.25 in 4 mi Calm Calm - -   Mist
7:00 AM 46.4 °F - 44.6 °F 93% 30.24 in 3.7 mi Calm Calm - N/A   Overcast
7:30 AM 46.4 °F - 44.6 °F 93% 30.24 in 2.8 mi WNW 2.3 mph - N/A   Overcast
8:00 AM 46.4 °F - 44.6 °F 93% 30.24 in 2.5 mi NNW 2.3 mph - N/A   Overcast
8:30 AM 46.4 °F - 44.6 °F 93% 30.24 in 3.1 mi NNW 2.3 mph - N/A   Overcast
9:00 AM 46.4 °F 45.2 °F 46.4 °F 100% 30.27 in 3.1 mi NNW 3.5 mph - N/A   Overcast
9:30 AM 48.2 °F - 46.4 °F 93% 30.27 in 3.1 mi NNE 5.8 mph - N/A   Overcast
10:00 AM 48.2 °F - 42.8 °F 82% 30.27 in 5.0 mi NNE 8.1 mph - N/A   Overcast
10:30 AM 48.2 °F - 42.8 °F 82% 30.27 in 6.2 mi North 6.9 mph - N/A   Overcast
11:00 AM 48.2 °F - 42.8 °F 82% 30.27 in 6.2 mi NNE 8.1 mph - N/A   Overcast
11:30 AM 50.0 °F - 42.8 °F 76% 30.27 in 6.2 mi North 8.1 mph - N/A   Overcast
12:00 PM 50.0 °F - 41.0 °F 71% 30.27 in 6.2 mi NE 8.1 mph - N/A   Overcast
12:30 PM 50.0 °F - 41.0 °F 71% 30.27 in 6.2 mi NE 9.2 mph - N/A   Overcast
1:00 PM 50 °F - 42 °F 65% 30.29 in 16 mi NNE 6.7 mph - -   Overcast
1:00 PM 50.0 °F - 41.0 °F 71% 30.27 in 6.2 mi NNE 6.9 mph - N/A   Overcast
1:30 PM 50.0 °F - 42.8 °F 76% 30.27 in 6.2 mi NNE 6.9 mph - N/A   Overcast
2:00 PM 51.8 °F - 42.8 °F 71% 30.27 in 6.2 mi NNE 6.9 mph - N/A   Overcast
2:30 PM 51.8 °F - 42.8 °F 71% 30.27 in 6.2 mi NE 6.9 mph - N/A   Overcast
3:00 PM 51.8 °F - 42.8 °F 71% 30.24 in 6.2 mi NE 8.1 mph - N/A   Overcast
3:30 PM 51.8 °F - 42.8 °F 71% 30.24 in 6.2 mi NE 6.9 mph - N/A   Overcast
4:00 PM 51.8 °F - 42.8 °F 71% 30.24 in 6.2 mi ENE 9.2 mph - N/A   Overcast
4:30 PM 51.8 °F - 44.6 °F 76% 30.27 in 6.2 mi NE 5.8 mph - N/A   Overcast
5:00 PM 51.8 °F - 44.6 °F 76% 30.27 in 6.2 mi NNE 3.5 mph - N/A   Overcast
5:30 PM 51.8 °F - 46.4 °F 82% 30.27 in 6.2 mi NNW 2.3 mph - N/A   Overcast
6:00 PM 51.8 °F - 46.4 °F 82% 30.27 in 6.2 mi NNW 2.3 mph - N/A   Overcast
6:30 PM 51.8 °F - 46.4 °F 82% 30.27 in 6.2 mi NNW 3.5 mph - N/A   Mostly Cloudy
7:00 PM 51 °F - 46 °F 77% 30.29 in 19 mi North 4.5 mph - -   Overcast
7:00 PM 51.8 °F - 46.4 °F 82% 30.27 in 6.2 mi North 3.5 mph - N/A   Mostly Cloudy
7:30 PM 50.0 °F - 46.4 °F 87% 30.27 in 6.2 mi NNW 3.5 mph - N/A   Mostly Cloudy
8:00 PM 50.0 °F - 46.4 °F 87% 30.27 in 6.2 mi North 2.3 mph - N/A   Overcast
8:30 PM 50.0 °F - 46.4 °F 87% 30.27 in 6.2 mi East 1.2 mph - N/A   Overcast
9:00 PM 50.0 °F - 46.4 °F 87% 30.27 in 6.2 mi SSW 1.2 mph - N/A   Overcast
9:30 PM 50.0 °F - 46.4 °F 87% 30.27 in 6.2 mi NW 3.5 mph - N/A   Mostly Cloudy
10:00 PM 50.0 °F - 48.2 °F 94% 30.27 in 6.2 mi Variable 1.2 mph - N/A   Overcast
10:30 PM 50.0 °F - 48.2 °F 94% 30.27 in 6.2 mi Variable 1.2 mph - N/A   Overcast
11:00 PM 50.0 °F - 48.2 °F 94% 30.27 in 6.2 mi North 1.2 mph - N/A   Overcast
11:30 PM 50.0 °F - 48.2 °F 94% 30.27 in 6.2 mi Variable 2.3 mph - N/A   Overcast